• In Moldova, Republic
  • List of Countries
  • For 7 days
  • Water Temperature
  • Satellite Maps
  • Weather Map
  • Weather Widgets
  • user-avatar
    Login

    Hourly Weather Quito

    Today, 20 February, Monday

    Time Temperature Precipitation Wind Pressure Humidity
    00:00 +17°C° 0.3 mm 2 mps 622 mmHg 95%
    01:00 +16°C° 0 mm 2 mps 622 mmHg 96%
    02:00 +16°C° 0.9 mm 2 mps 622 mmHg 96%
    03:00 +16°C° 0.9 mm 2 mps 622 mmHg 95%
    04:00 +16°C° 0.9 mm 2 mps 622 mmHg 95%
    05:00 +16°C° 0.9 mm 2 mps 622 mmHg 95%
    06:00 +16°C° 0.9 mm 2 mps 622 mmHg 95%
    07:00 +16°C° 0.9 mm 2 mps 622 mmHg 94%
    08:00 +17°C° 0.6 mm 2 mps 623 mmHg 91%
    09:00 +18°C° 0.6 mm 2 mps 623 mmHg 88%
    10:00 +18°C° 0.6 mm 2 mps 623 mmHg 86%
    11:00 +21°C° 0.2 mm 1 mps 623 mmHg 80%
    12:00 +22°C° 0.2 mm 1 mps 623 mmHg 75%
    13:00 +23°C° 0.2 mm 1 mps 623 mmHg 69%
    14:00 +24°C° 0.1 mm 1 mps 623 mmHg 64%
    15:00 +25°C° 0.1 mm 1 mps 622 mmHg 59%
    16:00 +25°C° 0.1 mm 1 mps 622 mmHg 54%
    17:00 +23°C° 0.2 mm 1 mps 622 mmHg 65%
    18:00 +20°C° 0.2 mm 1 mps 621 mmHg 75%
    19:00 +18°C° 0.2 mm 1 mps 620 mmHg 86%
    20:00 +18°C° 0 mm 1 mps 621 mmHg 87%
    21:00 +16°C° 0 mm 2 mps 621 mmHg 88%
    22:00 +16°C° 0 mm 2 mps 622 mmHg 89%
    23:00 +16°C° 0 mm 2 mps 621 mmHg 90%

    Tomorrow, 21 February, Tuesday

    Time Temperature Precipitation Wind Pressure Humidity
    00:00 +15°C° 0 mm 2 mps 621 mmHg 92%
    01:00 +15°C° 0 mm 2 mps 621 mmHg 93%
    02:00 +15°C° 0 mm 2 mps 621 mmHg 94%
    03:00 +15°C° 0 mm 2 mps 621 mmHg 94%
    04:00 +14°C° 0 mm 2 mps 621 mmHg 95%
    05:00 +15°C° 0 mm 2 mps 621 mmHg 93%
    06:00 +15°C° 0 mm 2 mps 621 mmHg 91%
    07:00 +15°C° 0 mm 1 mps 622 mmHg 90%
    08:00 +18°C° 0 mm 2 mps 623 mmHg 77%
    09:00 +21°C° 0 mm 2 mps 624 mmHg 64%
    10:00 +25°C° 0 mm 2 mps 625 mmHg 51%
    11:00 +27°C° 0 mm 2 mps 624 mmHg 46%
    12:00 +28°C° 0 mm 2 mps 624 mmHg 42%
    13:00 +29°C° 0 mm 2 mps 623 mmHg 37%
    14:00 +28°C° 0.4 mm 2 mps 623 mmHg 46%
    15:00 +26°C° 0.4 mm 2 mps 622 mmHg 56%
    16:00 +25°C° 0.4 mm 2 mps 621 mmHg 65%
    17:00 +23°C° 0.5 mm 2 mps 621 mmHg 73%
    18:00 +20°C° 0.5 mm 2 mps 621 mmHg 82%
    19:00 +18°C° 0.5 mm 2 mps 621 mmHg 91%
    20:00 +17°C° 0.4 mm 2 mps 621 mmHg 92%
    21:00 +17°C° 0.4 mm 2 mps 622 mmHg 94%
    22:00 +16°C° 0.4 mm 2 mps 622 mmHg 95%
    23:00 +16°C° 0 mm 2 mps 622 mmHg 95%

    Day after tomorrow, 22 February, Wednesday

    Time Temperature Precipitation Wind Pressure Humidity
    00:00 +16°C° 0 mm 2 mps 622 mmHg 96%
    01:00 +16°C° 0 mm 2 mps 621 mmHg 96%
    02:00 +15°C° 0 mm 2 mps 621 mmHg 96%
    03:00 +15°C° 0 mm 2 mps 621 mmHg 96%
    04:00 +15°C° 0 mm 2 mps 620 mmHg 95%
    05:00 +15°C° 0 mm 2 mps 621 mmHg 94%
    06:00 +15°C° 0 mm 2 mps 621 mmHg 92%
    07:00 +16°C° 0 mm 2 mps 622 mmHg 91%
    08:00 +18°C° 0 mm 2 mps 623 mmHg 76%
    09:00 +21°C° 0 mm 3 mps 624 mmHg 61%
    10:00 +25°C° 0 mm 3 mps 625 mmHg 46%
    11:00 +26°C° 0 mm 3 mps 624 mmHg 41%
    12:00 +28°C° 0 mm 3 mps 624 mmHg 37%
    13:00 +29°C° 0 mm 4 mps 624 mmHg 32%
    14:00 +28°C° 0 mm 3 mps 623 mmHg 35%
    15:00 +28°C° 0 mm 3 mps 622 mmHg 38%
    16:00 +27°C° 0 mm 3 mps 621 mmHg 41%
    17:00 +25°C° 0 mm 3 mps 621 mmHg 49%
    18:00 +22°C° 0 mm 3 mps 621 mmHg 56%
    19:00 +20°C° 0 mm 2 mps 621 mmHg 64%
    20:00 +19°C° 0.2 mm 2 mps 622 mmHg 68%
    21:00 +18°C° 0.2 mm 2 mps 622 mmHg 73%
    22:00 +17°C° 0.2 mm 2 mps 622 mmHg 77%
    23:00 +16°C° 0 mm 2 mps 622 mmHg 79%

    23 February, Thursday

    Time Temperature Precipitation Wind Pressure Humidity
    00:00 +15°C° 0 mm 2 mps 621 mmHg 81%
    01:00 +14°C° 0 mm 2 mps 621 mmHg 83%
    02:00 +14°C° 0 mm 2 mps 620 mmHg 83%
    03:00 +14°C° 0 mm 2 mps 620 mmHg 84%
    04:00 +13°C° 0 mm 2 mps 620 mmHg 84%
    05:00 +14°C° 0 mm 2 mps 621 mmHg 82%
    06:00 +14°C° 0 mm 2 mps 621 mmHg 81%
    07:00 +15°C° 0 mm 2 mps 622 mmHg 79%
    08:00 +18°C° 0 mm 2 mps 623 mmHg 65%
    09:00 +21°C° 0 mm 2 mps 624 mmHg 51%
    10:00 +26°C° 0 mm 2 mps 625 mmHg 38%
    11:00 +27°C° 0 mm 3 mps 625 mmHg 35%
    12:00 +28°C° 0 mm 3 mps 624 mmHg 31%
    13:00 +29°C° 0 mm 3 mps 624 mmHg 28%
    14:00 +29°C° 0 mm 2 mps 623 mmHg 34%
    15:00 +28°C° 0 mm 2 mps 622 mmHg 39%
    16:00 +27°C° 0 mm 1 mps 621 mmHg 45%
    17:00 +25°C° 0 mm 1 mps 621 mmHg 49%
    18:00 +23°C° 0 mm 1 mps 621 mmHg 53%
    19:00 +21°C° 0 mm 1 mps 621 mmHg 57%
    20:00 +21°C° 0 mm 1 mps 621 mmHg 57%
    21:00 +19°C° 0 mm 2 mps 622 mmHg 58%
    22:00 +19°C° 0 mm 2 mps 622 mmHg 59%
    23:00 +18°C° 0 mm 2 mps 621 mmHg 62%

    24 February, Friday

    Time Temperature Precipitation Wind Pressure Humidity
    00:00 +16°C° 0 mm 2 mps 621 mmHg 66%
    01:00 +15°C° 0 mm 2 mps 620 mmHg 70%
    02:00 +15°C° 0 mm 2 mps 620 mmHg 71%
    03:00 +15°C° 0 mm 1 mps 620 mmHg 71%
    04:00 +14°C° 0 mm 1 mps 620 mmHg 72%
    05:00 +15°C° 0 mm 1 mps 620 mmHg 70%
    06:00 +16°C° 0 mm 1 mps 621 mmHg 69%
    07:00 +18°C° 0 mm 1 mps 622 mmHg 68%
    08:00 +21°C° 0 mm 1 mps 623 mmHg 57%
    09:00 +24°C° 0 mm 1 mps 624 mmHg 46%
    10:00 +27°C° 0 mm 1 mps 625 mmHg 35%
    11:00 +29°C° 0 mm 1 mps 624 mmHg 34%
    12:00 +30°C° 0 mm 1 mps 624 mmHg 32%
    13:00 +31°C° 0 mm 1 mps 624 mmHg 30%
    14:00 +30°C° 0 mm 1 mps 623 mmHg 35%
    15:00 +29°C° 0 mm 1 mps 622 mmHg 40%
    16:00 +28°C° 0 mm 1 mps 621 mmHg 44%
    17:00 +25°C° 0 mm 1 mps 621 mmHg 48%
    18:00 +23°C° 0 mm 1 mps 621 mmHg 51%
    19:00 +21°C° 0 mm 1 mps 620 mmHg 54%
    20:00 +21°C° 0 mm 1 mps 621 mmHg 56%
    21:00 +21°C° 0 mm 1 mps 622 mmHg 57%
    22:00 +21°C° 0 mm 1 mps 622 mmHg 58%
    23:00 +20°C° 0.1 mm 1 mps 622 mmHg 63%

    25 February, Saturday

    Time Temperature Precipitation Wind Pressure Humidity
    00:00 +19°C° 0.1 mm 1 mps 621 mmHg 67%
    01:00 +19°C° 0.1 mm 1 mps 621 mmHg 72%
    02:00 +18°C° 0 mm 1 mps 621 mmHg 74%
    03:00 +16°C° 0 mm 1 mps 621 mmHg 76%
    04:00 +16°C° 0 mm 1 mps 620 mmHg 78%
    05:00 +16°C° 0 mm 1 mps 621 mmHg 77%
    06:00 +18°C° 0 mm 1 mps 622 mmHg 76%
    07:00 +18°C° 0 mm 1 mps 622 mmHg 75%
    08:00 +21°C° 0 mm 1 mps 623 mmHg 64%
    09:00 +24°C° 0 mm 1 mps 624 mmHg 54%
    10:00 +27°C° 0 mm 1 mps 625 mmHg 43%
    11:00 +28°C° 0.2 mm 1 mps 625 mmHg 42%
    12:00 +29°C° 0.2 mm 1 mps 624 mmHg 41%
    13:00 +29°C° 0.2 mm 1 mps 624 mmHg 41%
    14:00 +29°C° 0.5 mm 1 mps 623 mmHg 46%
    15:00 +28°C° 0.5 mm 1 mps 622 mmHg 51%
    16:00 +27°C° 0.5 mm 1 mps 622 mmHg 56%
    17:00 +25°C° 0.1 mm 1 mps 621 mmHg 63%
    18:00 +22°C° 0.1 mm 1 mps 621 mmHg 71%
    19:00 +20°C° 0.1 mm 1 mps 621 mmHg 78%
    20:00 +20°C° 0 mm 1 mps 621 mmHg 80%
    21:00 +19°C° 0 mm 1 mps 621 mmHg 82%
    22:00 +19°C° 0 mm 1 mps 621 mmHg 84%
    23:00 +18°C° 0.5 mm 1 mps 621 mmHg 86%
    Show more